Regional Weather Roundup
Issued by NWS

Home | Current Version | Previous Version | Graphics & Text | Print | Product List | Glossary On
Versions: 1 2 3 4 5 6 7 8 9 10 11 12 13 14 15 16 17 18 19 20 21 22 23 24 25 26 27 28 29 30 31 32 33 34 35 36 37 38 39 40 41 42 43 44 45 46 47 48 49 50
000
ASUS43 KMPX 190401
RWRMN
WEATHER ROUNDUP FOR MINNESOTA
NATIONAL WEATHER SERVICE TWIN CITIES/CHANHASSEN MN
1100 PM CDT FRI APR 18 2014


NOTE: "FAIR" INDICATES FEW OR NO CLOUDS BELOW 12,000 FEET WITH NO
SIGNIFICANT WEATHER AND/OR OBSTRUCTIONS TO VISIBILITY. N/A MEANS
CURRENT SKY AND/OR WEATHER CONDITIONS ARE NOT AVAILABLE.

MNZ060>063-068>070-190500-
   Twin Cities Metro

CITY           SKY/WX    TMP DP  RH WIND       PRES   REMARKS
TWIN CITIES    MOCLDY    47  28  47 E14       30.21S
ST PAUL        PTCLDY    45  26  47 E7        30.23S
CRYSTAL        MOCLDY    45  26  47 E8        30.19F
BLAINE         MOCLDY    45  27  49 E10       30.20F
EDEN PRAIRIE   MOCLDY    48  26  42 E16       30.17F
LAKEVILLE      MOCLDY    39  30  70 E9        30.20S
SOUTH ST PAUL  MOCLDY    49  28  44 CALM      30.22S
LAKE ELMO      FAIR      43  28  56 E9        30.24R
$$
MNZ001>005-007-008-013>017-022>024-027-028-190500-
   Northwest Minnesota

CITY           SKY/WX    TMP DP  RH WIND       PRES   REMARKS
BEMIDJI        CLOUDY    39  20  46 SE23      30.10F
HALLOCK        CLOUDY    45  25  45 SE24G31   29.93F
ROSEAU         DRIZZLE   43  28  56 SE22G29   30.07F
WARROAD        DRIZZLE   41  28  60 SE22G30   30.11F
THIEF RVR FALL CLOUDY    43  23  45 SE26G33   29.97F
CROOKSTON      CLOUDY    45  27  49 SE26G36   29.93F
FOSSTON        CLOUDY    39  23  52 SE22G31   29.98F
DETROIT LAKES  CLOUDY    43  28  56 SE26G37   29.99F
MOORHEAD       CLOUDY    45  30  57 SE28G45   29.90F
PARK RAPIDS    CLOUDY    41  22  46 SE20G30   30.09F
$$
MNZ006-009>011-018-025>026-190500-
   North Central Minnesota

CITY           SKY/WX    TMP DP  RH WIND       PRES   REMARKS
BAUDETTE       CLOUDY    42  19  39 SE16G25   30.17R
FLAG ISLAND    CLOUDY    37  21  52 E14G21    30.16S
INTL FALLS     CLOUDY    39  19  44 SE13G24   30.23S
WASKISH        CLOUDY    41  19  42 E13G24    30.15F
LONGVILLE      CLOUDY    37  18  44 E9        30.16F
GRAND RAPIDS   CLOUDY    36  19  51 SE12G18   30.22F
CRANE LAKE     CLOUDY    36  21  55 SE5       30.31S
ORR            CLOUDY    36  18  48 SE8       30.24F
COOK           CLOUDY    34  21  60 SE10G16   30.28F WCI  26
$$
MNZ012-019>021-037-190500-
   Northeast Minnesota

CITY           SKY/WX    TMP DP  RH WIND       PRES   REMARKS
DULUTH         CLOUDY    32  21  64 E13       30.29S WCI  22
ELY            CLOUDY    32  21  64 SE8       30.31S WCI  25
HIBBING        CLOUDY    35  19  52 SE12      30.27F WCI  27
EVELETH        CLOUDY    32  21  64 E6        30.30S WCI  26
DULUTH HARBOR  CLOUDY    32  28  86 NE10      30.34S WCI  24
TWO HARBORS    CLOUDY    30  21  69 E13       30.31F WCI  20
SILVER BAY     CLOUDY    28  27  93 NE8       30.34R WCI  20
GRAND MARAIS     N/A     30  24  78 CALM      30.40F
G MARAIS ARPRT CLOUDY    27  18  69 E6        30.35S WCI  20
$$
MNZ029>031-032-039>041-046>048-054>057-064-190500-
   West Central Minnesota

CITY           SKY/WX    TMP DP  RH WIND       PRES   REMARKS
FERGUS FALLS   CLOUDY    43  27  52 SE26G37   29.94F
WHEATON        CLOUDY    46  37  71 SE31G40   29.93F
MORRIS         CLOUDY    45  34  65 SE30G36   29.97F
ALEXANDRIA     CLOUDY    40  28  62 SE23G32   30.05F
ELBOW LAKE     FAIR      42  31  63 SE25G37   29.97F
WADENA         CLOUDY    39  25  56 E21G26    30.07F
GLENWOOD       CLOUDY    39  30  70 E22G28    30.06F
APPLETON       CLOUDY    46  36  66 SE23G31   29.98F
BENSON         CLOUDY    46  34  61 S20G32    30.02F
ORTONVILLE     CLOUDY    45  36  70 SE26G33   29.93F
MADISON        CLOUDY    52  37  58 SE24G32   29.96F
WILLMAR        FAIR      45  32  61 E22G30    30.08F
$$
MNZ033>034-036-042>043-049>051-058-059-190500-
   Central Minnesota

CITY           SKY/WX    TMP DP  RH WIND       PRES   REMARKS
ST CLOUD       CLOUDY    42  26  53 E10G18    30.16F
SAUK CENTRE    FAIR      39  28  63 E15G22    30.10F
PAYNESVILLE    CLOUDY    41  29  62 E12       30.11F
AITKIN         CLOUDY    37  23  56 E6        30.20F
PINE RIVER     CLOUDY    39  25  56 E14G20    30.18F
BRAINERD       CLOUDY    45  21  38 SE13G25   30.17F
STAPLES        CLOUDY    39  21  48 SE12G20   30.11F
LONG PRAIRIE   FAIR      39  27  60 E16G25    30.10F
LITTLE FALLS   CLOUDY    39  25  56 E14G20    30.14F
LITCHFIELD     CLOUDY    43  30  61 E17G24    30.12F
BUFFALO        CLOUDY    43  29  58 E9        30.18F
MAPLE LAKE     CLOUDY    41  31  68 E10       30.17S
$$
MNZ037-044-045-052-053-190500-
   East Central Minnesota

CITY           SKY/WX    TMP DP  RH WIND       PRES   REMARKS
PRINCETON      CLOUDY    43  27  52 E8        30.20F
MORA           MOCLDY    36  23  60 E7        30.24F
CAMBRIDGE      PTCLDY    43  27  52 E6        30.20F
RUSH CITY      PTCLDY    39  25  57 E5        30.24F
MOOSE LAKE     CLOUDY    34  23  64 NE6       30.25F WCI  29
HINCKLEY       FAIR      41  25  52 E7        30.25S
CLOQUET        CLOUDY    34  21  60 E7G16     30.28S WCI  28
MCGREGOR       CLOUDY    36  27  69 E13       30.23F
$$
MNZ071>073-080-081-089-090-097-098-190500-
   Southwest Minnesota

CITY           SKY/WX    TMP DP  RH WIND       PRES   REMARKS
MONTEVIDEO     CLOUDY    45  37  76 S23       30.02F
GRANITE FALLS  CLOUDY    48  35  59 E23G29    30.04F
CANBY          CLOUDY    47  38  71 SE18      29.97F
MARSHALL       CLOUDY    50  34  53 SE16      30.00S
REDWOOD FALLS  CLOUDY    49  34  56 SE15G24   30.06S
OLIVIA         CLOUDY    43  34  70 E15G22    30.07F
PIPESTONE      CLOUDY    54  34  47 S18G24    29.97S
WINDOM         CLOUDY    52  30  43 SE18      30.05F
WORTHINGTON    CLOUDY    52  28  40 SE17      30.04S
JACKSON        CLOUDY    50  32  50 SE16      30.07S
TRACY          CLOUDY    50  34  54 SE17      30.02R
SLAYTON        CLOUDY    49  34  56 SE21G26   30.01R
$$
MNZ065>067-074>077-082>085-091>093-190500-
   South Central Minnesota

CITY           SKY/WX    TMP DP  RH WIND       PRES   REMARKS
MANKATO        MOCLDY    46  34  61 SE20      30.14F
NEW ULM        CLOUDY    50  34  53 SE16G23   30.10S
ST JAMES       CLOUDY    48  34  57 SE15      30.10F
FAIRMONT       CLOUDY    48  30  49 SE18      30.11F
GLENCOE        CLOUDY    46  30  54 E18       30.13F
FARIBAULT      MOCLDY    48  27  43 E9        30.19R
OWATONNA       MOCLDY    46  30  53 SE15G21   30.17S
WASECA         PTCLDY    45  36  70 E14       30.17F
ALBERT LEA     PTCLDY    46  34  61 SE13      30.17S
$$
MNZ078>079-086>088-094>096-190500-
   Southeast Minnesota

CITY           SKY/WX    TMP DP  RH WIND       PRES   REMARKS
ROCHESTER      PTCLDY    42  29  59 SE13      30.20F
RED WING       CLEAR     46  27  46 E7        30.22S
STANTON        MOCLDY    47  27  44 E9        30.19S
DODGE CENTER   MOCLDY    45  32  61 SE13      30.19F
WINONA         CLEAR     43  32  65 S3        30.26F
AUSTIN         PTCLDY    45  34  65 SE10      30.18F
PRESTON        CLEAR     45  29  54 SE9       30.22F
$$
ABBREVIATIONS USED IN REMARKS
   TC - TEMPERATURES IN CELSIUS
  WCI - WIND CHILL INDEX
   HX - HEAT INDEX
  VSB - VISIBILITY
$$


USA.gov is the U.S. government's official web portal to all federal, state and local government web resources and services.